CZ-6A DEB, 61803

Orbit data source: Space-Track

CZ-6A DEB, 61803 is space debris in LEO originally from a launch on Tue, 06 Aug 2024 UTC launched from the Taiyaun Space Center, China (TSC). Debris objects in space refer to the collection of defunct objects orbiting the Earth. Examples of debris include non-operational satellites, rocket bodies, and fragments generated from explosions, collisions, or faulty payload assembly.

Loading next visibility...
Identifier
61803, 2024-140ABT
Orbit
LEO
Country
Flag of CNCN / PRC
Related business
Manufacturer
SAST
Mission
Spacecraft
Bus & Motor
Unknown
Mass
Unknown
Launch date (UTC)
2024-08-06 (2 years ago)
Launch vehicle
Unknown
Launch site
Taiyaun Space Center, China (TSC)
Object type
Payload
Rocket body
Debris
Shape & HBR
Unknown shape, 0.1 m
Radar Cross Section
Medium (>0.1 m² and <1 m²)

Expand to show TLE details & history
Last TLE update: 1 day ago

TLE from 1 day ago
0 CZ-6A DEB
1 61803U 24140ABT 26170.53973155  .00000480  00000-0  23074-3 0  9994
2 61803  88.9831 273.5054 0067671 170.7311 189.5144 14.16002160 92598
Epoch: 2026-06-19T12:57Z
TLE epoch observation values (Epoch: 2026-06-19T12:57:12.805Z)
Latitude
-0.00006°
Longitude
171.4348°
Altitude
890.138 km
Speed
7.382 km/s
True Right ascension
18h 14m 01s
True Declination
0° 00' 00"
Sunlit
Object was in full shadow at epoch
Visualization orbit readout
Latitude
Unknown
Longitude
Unknown
Altitude
Unknown
Speed
Unknown
Apparent Right ascension
Unknown
Apparent Declination
Unknown
Sunlit
N/A
Visualization observer readout
Local Sidereal Time
10:18:31
Azimuth
Unknown
Elevation
Unknown
Doppler factor
Unknown
Orbital elements
Apogee altitude
884.68 km
Perigee altitude
787.044 km
Semi-major axis
7,213.999 km
Eccentricity
0.00677
Inclination
88.9831°
RAAN
273.5054°
Arg. of periapsis
170.7311°
True anomaly
189.38728°
Mean anomaly
189.5144°
Eccentric anomaly
189.45074°
Mean motion
3.54225 °/min
Orbital period
101.63 mins
BSTAR
0.00023074
Loading maneuver chart data...
Computing Atmospheric mass density...
Loading historical data...
Loading historical data...
Loading historical data...
Loading historical data...
Loading historical data...
Loading historical data...
Loading historical data...

Documentation

Showing up to 5 results
|